TimeHADT,TemperatureF,Dew PointF,Humidity,Sea Level PressureIn,VisibilityMPH,Wind Direction,Wind SpeedMPH,Gust SpeedMPH,PrecipitationIn,Events,Conditions,WindDirDegrees,DateUTC
12:01 AM,50.0,48.0,93,30.03,6.0,North,-9999.0,-,0.06,Rain,Light Rain,0,2012-10-07 09:01:00
1:01 AM,50.0,48.2,94,29.75,3.0,North,-9999.0,-,0.03,Rain,Light Rain,0,2012-10-07 10:01:00
1:51 AM,50.0,48.9,96,30.03,3.0,North,-9999.0,-,0.11,Rain,Light Rain,0,2012-10-07 10:51:00
2:01 AM,50.0,48.9,96,30.03,4.0,North,-9999.0,-,0.02,Rain,Light Rain,0,2012-10-07 11:01:00
2:39 AM,51.8,50.0,94,29.75,4.0,North,-9999.0,-,0.05,Rain,Light Rain,0,2012-10-07 11:39:00
3:01 AM,51.1,50.0,96,30.03,4.0,North,-9999.0,-,0.09,Rain,Light Rain,0,2012-10-07 12:01:00
3:27 AM,51.8,48.2,88,29.75,3.0,North,-9999.0,-,0.06,Rain,Light Rain,0,2012-10-07 12:27:00
4:01 AM,51.1,48.9,92,30.04,4.0,North,-9999.0,-,0.17,Rain,Rain,0,2012-10-07 13:01:00
5:01 AM,52.0,48.9,89,30.03,5.0,North,-9999.0,-,0.18,Rain,Rain,0,2012-10-07 14:01:00
5:52 AM,51.8,48.2,88,29.77,5.0,North,-9999.0,-,0.19,Rain,Rain,0,2012-10-07 14:52:00
6:01 AM,52.0,50.0,93,30.05,5.0,North,-9999.0,-,0.23,Rain,Rain,0,2012-10-07 15:01:00
7:01 AM,52.0,50.0,93,30.05,5.0,North,-9999.0,-,0.19,Rain,Rain,0,2012-10-07 16:01:00
8:01 AM,52.0,50.0,93,30.07,4.0,North,-9999.0,-,0.39,Rain,Heavy Rain,0,2012-10-07 17:01:00
8:33 AM,51.8,50.0,94,29.79,2.0,North,-9999.0,-,0.18,Rain,Heavy Rain,0,2012-10-07 17:33:00
8:44 AM,51.8,50.0,94,29.79,4.0,North,-9999.0,-,0.25,Rain,Rain,0,2012-10-07 17:44:00
8:58 AM,51.8,50.0,94,29.79,1.8,North,-9999.0,-,0.27,Rain,Light Rain,0,2012-10-07 17:58:00
9:01 AM,52.0,50.0,93,30.08,1.8,North,-9999.0,-,0.28,Rain,Rain,0,2012-10-07 18:01:00
9:08 AM,51.8,50.0,94,29.79,2.5,North,-9999.0,-,0.02,Rain,Rain,0,2012-10-07 18:08:00
9:17 AM,51.8,50.0,94,29.80,1.8,North,-9999.0,-,0.04,Rain,Light Rain,0,2012-10-07 18:17:00
9:46 AM,51.8,50.0,94,29.80,2.5,North,-9999.0,-,0.17,Rain,Rain,0,2012-10-07 18:46:00
10:01 AM,52.0,48.9,89,30.09,2.5,North,-9999.0,-,0.31,Rain,Heavy Rain,0,2012-10-07 19:01:00
10:36 AM,51.8,48.2,88,29.82,2.5,North,-9999.0,-,0.26,Rain,Rain,0,2012-10-07 19:36:00
11:01 AM,51.1,48.9,92,30.11,2.0,North,-9999.0,-,0.40,Rain,Rain,0,2012-10-07 20:01:00
11:57 AM,51.8,48.2,88,29.85,3.0,North,-9999.0,-,0.48,Rain,Rain,0,2012-10-07 20:57:00
12:01 PM,51.1,48.9,92,30.13,3.0,North,-9999.0,-,0.52,Rain,Heavy Rain,0,2012-10-07 21:01:00
12:13 PM,51.8,48.2,88,29.85,2.5,North,-9999.0,-,0.10,Rain,Heavy Rain,0,2012-10-07 21:13:00
12:27 PM,51.8,48.2,88,29.85,3.0,North,-9999.0,-,0.18,Rain,Rain,0,2012-10-07 21:27:00
12:46 PM,51.8,48.2,88,29.86,2.5,North,-9999.0,-,0.26,Rain,Rain,0,2012-10-07 21:46:00
1:01 PM,51.1,48.9,92,30.14,2.0,North,-9999.0,-,0.32,Rain,Light Rain,0,2012-10-07 22:01:00
1:11 PM,51.8,48.2,88,29.86,1.8,North,-9999.0,-,0.03,Rain,Rain,0,2012-10-07 22:11:00
1:22 PM,51.8,48.2,88,29.85,2.5,North,-9999.0,-,0.11,Rain,Heavy Rain,0,2012-10-07 22:22:00
1:29 PM,51.8,48.2,88,29.85,2.5,North,-9999.0,-,0.15,Rain,Rain,0,2012-10-07 22:29:00
1:36 PM,51.8,48.2,88,29.85,3.0,North,-9999.0,-,0.17,Rain,Rain,0,2012-10-07 22:36:00
1:56 PM,51.8,48.2,88,29.86,2.5,North,-9999.0,-,0.29,Rain,Rain,0,2012-10-07 22:56:00
1:57 PM,51.8,48.2,88,29.86,3.0,North,-9999.0,-,0.30,Rain,Rain,0,2012-10-07 22:57:00
2:01 PM,51.1,48.9,92,30.14,3.0,North,-9999.0,-,0.31,Rain,Rain,0,2012-10-07 23:01:00
2:54 PM,51.8,48.2,88,29.87,2.5,North,-9999.0,-,0.20,Rain,Rain,0,2012-10-07 23:54:00
3:17 PM,51.8,48.2,88,29.87,4.0,North,-9999.0,-,0.03,Rain,Light Rain,0,2012-10-08 00:17:00
4:01 PM,51.1,48.9,92,30.14,4.0,North,-9999.0,-,0.08,Rain,Light Rain,0,2012-10-08 01:01:00
5:01 PM,51.1,48.9,92,30.15,5.0,North,-9999.0,-,0.10,Rain,Rain,0,2012-10-08 02:01:00
6:01 PM,51.1,48.9,92,30.17,5.0,North,-9999.0,-,0.14,Rain,Rain,0,2012-10-08 03:01:00
7:01 PM,50.0,48.2,94,29.91,2.0,North,-9999.0,-,0.16,Rain,Light Rain,0,2012-10-08 04:01:00
7:34 PM,50.0,48.2,94,29.92,3.0,North,-9999.0,-,0.26,Rain,Rain,0,2012-10-08 04:34:00
8:01 PM,50.0,48.2,94,29.93,4.0,North,-9999.0,-,0.03,Rain,Rain,0,2012-10-08 05:01:00
8:19 PM,50.0,48.9,96,30.22,4.0,North,-9999.0,-,0.12,Rain,Heavy Rain,0,2012-10-08 05:19:00
8:58 PM,50.0,48.2,94,29.95,4.0,North,-9999.0,-,0.19,Rain,Rain,0,2012-10-08 05:58:00
9:01 PM,50.0,48.9,96,30.24,4.0,North,-9999.0,-,0.20,Rain,Rain,0,2012-10-08 06:01:00
9:18 PM,50.0,48.2,94,29.96,4.0,North,-9999.0,-,0.07,Rain,Rain,0,2012-10-08 06:18:00
9:30 PM,50.0,48.2,94,29.97,3.0,North,-9999.0,-,0.12,Rain,Rain,0,2012-10-08 06:30:00
10:01 PM,48.2,48.2,100,29.99,2.5,North,-9999.0,-,0.23,Rain,Rain,0,2012-10-08 07:01:00
11:01 PM,48.9,48.0,97,30.29,2.5,North,-9999.0,-,0.30,Rain,Light Rain,0,2012-10-08 08:01:00
11:18 PM,48.2,48.2,100,30.01,2.5,North,-9999.0,-,0.02,Rain,Light Rain,0,2012-10-08 08:18:00
11:44 PM,48.2,48.2,100,30.02,3.0,North,-9999.0,-,0.04,Rain,Light Rain,0,2012-10-08 08:44:00